Regional Weather Roundup
Issued by NWS

Home | Current Version | Previous Version | Text Only | Print | Product List | Glossary Off
Versions: 1 2 3 4 5 6 7 8 9 10 11 12 13 14 15 16 17 18 19 20 21 22 23 24 25 26 27 28 29 30 31 32 33 34 35 36 37 38 39 40 41 42 43 44 45 46 47 48 49 50

000
ASUS43 KDTX 012010
RWRMI
MICHIGAN HOURLY REGIONAL WEATHER ROUNDUP
NATIONAL WEATHER SERVICE DETROIT/PONTIAC MI
400 PM EDT WED OCT 01 2014

NOTE: "FAIR" INDICATES FEW OR NO CLOUDS BELOW 12,000 FEET WITH NO
SIGNIFICANT WEATHER AND/OR OBSTRUCTION TO VISIBILITY.

MIZ047>049-052>055-059>063-066>070-074>076-081>083-012100-
SOUTHEAST LOWER MICHIGAN

CITY           SKY/WX    TMP DP  RH WIND       PRES   REMARKS
ADRIAN         CLOUDY    67  50  54 SW10      30.03F
ALMA           MOSUNNY   62  50  66 SE8       30.03F
ANN ARBOR      PTSUNNY   67  49  52 SE9       30.02F
BAD AXE        CLOUDY    64  60  86 SE5       30.04F FOG
CARO           CLOUDY    65  56  74 S3        30.03F
DETROIT CITY   PTSUNNY   64  52  64 SE5       30.03F
DETROIT        PTSUNNY   66  53  63 S3        30.04F
FLINT          CLOUDY    70  53  54 S14       30.02F
GROSSE ILE     PTSUNNY   64  55  72 S3        30.02F
HILLSDALE      SUNNY     67  48  51 S9        30.02F
HOWELL         MOSUNNY   66  50  57 S9        30.02F

CITY           SKY/WX    TMP DP  RH WIND       PRES   REMARKS
JACKSON        MOSUNNY   65  49  56 S9        30.02F
LAMBERTVILLE   MOSUNNY   64  52  63 CALM      30.03S
LANSING        MOSUNNY   64  50  60 SE10      30.03S
LAPEER         CLOUDY    65  54  67 S3        30.03F
MASON          MOSUNNY   65  49  56 S8        30.03S
MONROE         PTSUNNY   68  52  56 SE5       30.01F
MT. CLEMENS    PTSUNNY   66  56  70 SE5       30.02F
PONTIAC        PTSUNNY   65  51  60 SE3       30.03F
PORT HOPE        N/A     62  58  86 E14       30.03F
PORT HURON     CLOUDY    66  57  72 CALM      30.04S
TRI CITIES     CLOUDY    68  53  58 SE9       30.03F
TROY           PTSUNNY   69  53  55 SE5       30.04F
SAGINAW HB     CLOUDY    68  52  56 SE7       30.02F
$$
MIZ043>046-050>051-056>058-064>065-071>073-077>080-012100-
SOUTHWEST LOWER MICHIGAN

CITY           SKY/WX    TMP DP  RH WIND       PRES   REMARKS
BATTLE CREEK   MOSUNNY   64  49  57 SE9       30.02F
BENTON HARBOR  SUNNY     66  50  56 SE12      29.97F
BIG RAPIDS     CLOUDY    59  55  85 S12G18    30.00F
COLDWATER      SUNNY     66  50  56 S6        30.01F
FREMONT        MOCLDY    62  48  60 S9        30.00S
HOLLAND        MOSUNNY   63  52  67 SE9       30.00
GRAND RAPIDS   PTSUNNY   63  52  67 S10       30.02F
IONIA          CLOUDY    63  51  65 SE9       30.01F
KALAMAZOO      SUNNY     65  50  58 SE8       30.01F
LUDINGTON      PTSUNNY   59  53  78 S3        29.99F
MARSHALL       SUNNY     64  48  56 SE6       30.01F
MOUNT PLEASANT SUNNY     63  51  63 SE12      30.01F
MUSKEGON       CLOUDY    60  49  66 SE8       30.01F
SOUTH HAVEN    SUNNY     66  52  61 SE5       29.98F
$$
MIZ016>042-012100-
NORTHERN LOWER MICHIGAN

CITY           SKY/WX    TMP DP  RH WIND       PRES   REMARKS
ALPENA         CLOUDY    58  58 100 SE7       30.04F FOG
BEAVER ISLAND  CLOUDY    60  56  84 SE10      30.00F
BELLAIRE       PTSUNNY   66  51  59 S13G18    29.98F
CADILLAC       CLOUDY    64  54  70 SE10      29.98F
CHARLEVOIX     CLOUDY    62  57  81 E10       30.01F
FRANKFORT      CLOUDY    64  52  65 S8        29.98F
GAYLORD        PTSUNNY   60  53  77 SE10      30.01F
GRAYLING       PTSUNNY   62  53  71 SE9       30.02F
HARBOR SPRINGS CLOUDY    64  55  75 E13       30.00F
HOUGHTON LAKE  PTSUNNY   62  53  72 SE10      30.02F
OSCODA         CLOUDY    63  60  89 E6        30.03F
PELLSTON       CLOUDY    59  55  87 E8        30.02F
TRAVERSE CITY  PTSUNNY   68  51  54 SE10G17   29.96F
$$
MIZ007>008-015-012100-
EASTERN UPPER MICHIGAN

CITY           SKY/WX    TMP DP  RH WIND       PRES   REMARKS
MACKINAC ISLAN FOG       55  55  99 E10G16    30.03F VSB 1
NEWBERRY       CLOUDY    56  53  88 SE10G23   29.99F
S. S. MARIE    CLOUDY    54  52  93 VRB6      30.03F
MUNISING         N/A     60  51  72 S14G25    29.94F
$$
MIZ004>006-011>014-085-012100-
CENTRAL UPPER MICHIGAN

CITY           SKY/WX    TMP DP  RH WIND       PRES   REMARKS
MANISTIQUE     CLOUDY    58  54  86 S10       29.98F
SAWYER-GWINN   CLOUDY    57  48  72 S22       29.94F
$$
MIZ001>003-009>011-084-012100-
WESTERN UPPER MICHIGAN

CITY           SKY/WX    TMP DP  RH WIND       PRES   REMARKS
IRON MOUNTAIN  CLOUDY    55  51  86 S10       29.93S
HOUGHTON       PTSUNNY   59  47  64 S15       29.86F
COPPER HARBOR    N/A     57  48  72 VRB7G17   29.86F
$$

ABBREVIATIONS USED IN REMARKS
   TC - TEMPERATURE IN CELSIUS
  WCI - WIND CHILL INDEX
   HX - HEAT INDEX
  VSB - VISIBILITY




USA.gov is the U.S. government's official web portal to all federal, state and local government web resources and services.